Afton, Prince Edward Island

3:38 AM ADT on May 23, 2017 (GMT -0300)
Afton

Weather History for 71706 - December, 2012

Change the Weather History Date:

Sunday, December 9, 2012

  Actual Average Record
Temperature  
Mean Temperature 37 °F -  
Max Temperature 46 °F 30 °F - ()
Min Temperature 26 °F 15 °F - ()
Degree Days  
Heating Degree Days 28    
Moisture  
Dew Point 33 °F    
Average Humidity 80    
Maximum Humidity 100    
Minimum Humidity 49    
Precipitation  
Precipitation 0.04 in 0.16 in - ()
Sea Level Pressure  
Sea Level Pressure 29.97 in    
Wind  
Wind Speed 11 mph ()    
Max Wind Speed 23 mph    
Max Gust Speed 33 mph    
Visibility 11.7 miles    
Events Rain    
T = Trace of Precipitation, MM = Missing Value Source: Averaged Metar Reports

Daily Weather History Graph

Daily Weather History Graph

Search for Another Location

Airport or City:

Trip Planner

Search our weather history database for the weather conditions in past years. The results will help you decide how hot, cold, wet, or windy it might be!

Date:

Astronomy

Dec. 09, 2012 Rise Set
Actual Time 7:44 AM AST 4:26 PM AST
Civil Twilight 7:09 AM AST 5:00 PM AST
Nautical Twilight 6:31 AM AST 5:38 PM AST
Astronomical Twilight 5:54 AM AST 6:15 PM AST
Moon 3:00 AM AST (12/9) 1:39 PM AST (12/9)
Length of Visible Light 9h 51m
Length of Day
8h 42m
Waning Crescent, 19% of the Moon is Illuminated
Dec 9
Waning Crescent
Dec 13
New
Dec 20
First Quarter
Dec 28
Full
Jan 4
Last Quarter

Hourly Weather History & Observations

Time (AST) Temp. Windchill Dew Point Humidity Pressure Visibility Wind Dir Wind Speed Gust Speed Precip Events Conditions
12:00 AM 42.8 °F 38.6 °F 42.8 °F 100% 29.81 in 2.0 mi ESE 6.9 mph - N/A Rain Light Rain
1:00 AM 44.6 °F 42.2 °F 44.6 °F 100% 29.78 in 1.0 mi ESE 4.6 mph - N/A Rain Light Rain
2:00 AM 46 °F - 46 °F 99% 29.76 in 1 mi SSE 10.4 mph - - Rain Light Rain
2:00 AM 46.4 °F 41.5 °F 46.4 °F 100% 29.76 in 1.0 mi South 10.4 mph - N/A Rain Light Rain
3:50 AM 44.6 °F 41.4 °F 44.6 °F 100% 29.75 in 0.6 mi SSW 5.8 mph - N/A Rain Light Rain
4:00 AM 46.4 °F 42.9 °F 46.4 °F 100% 29.75 in 0.6 mi SSW 6.9 mph - N/A Rain Light Rain
5:00 AM 44.6 °F 38.1 °F 44.6 °F 100% 29.77 in 3.0 mi WSW 13.8 mph 19.6 mph N/A   Overcast
6:00 AM 42.8 °F 36.6 °F 42.8 °F 100% 29.79 in 15.0 mi WSW 11.5 mph 18.4 mph N/A   Overcast
7:00 AM 42.8 °F 36.2 °F 42.8 °F 100% 29.82 in 15.0 mi WSW 12.7 mph - N/A   Overcast
8:00 AM 41 °F - 39 °F 88% 29.85 in 15 mi West 20.7 mph - -   Partly Cloudy
8:00 AM 41.0 °F 31.1 °F 39.2 °F 93% 29.85 in 15.0 mi WSW 23.0 mph 32.2 mph N/A   Mostly Cloudy
8:26 AM 39.2 °F 29.6 °F 37.4 °F 93% 29.86 in 15.0 mi West 19.6 mph 33.4 mph N/A   Mostly Cloudy
9:00 AM 41.0 °F 31.9 °F 37.4 °F 87% 29.88 in 15.0 mi West 19.6 mph 27.6 mph N/A   Mostly Cloudy
10:00 AM 41.0 °F 33.9 °F 35.6 °F 81% 29.92 in 15.0 mi West 12.7 mph 28.8 mph N/A   Mostly Cloudy
11:00 AM 39.2 °F 29.3 °F 33.8 °F 81% 29.94 in 15.0 mi West 20.7 mph 31.1 mph N/A   Mostly Cloudy
12:00 PM 39.2 °F 29.6 °F 30.2 °F 70% 29.97 in 15.0 mi WNW 19.6 mph 31.1 mph N/A   Mostly Cloudy
1:00 PM 39.2 °F 29.3 °F 28.4 °F 65% 29.99 in 15.0 mi WNW 20.7 mph 32.2 mph N/A   Scattered Clouds
2:00 PM 39 °F - 29 °F 57% 30.03 in 15 mi West 13.8 mph - -   Partly Cloudy
2:00 PM 39.2 °F 31.2 °F 28.4 °F 65% 30.03 in 15.0 mi WNW 13.8 mph 24.2 mph N/A   Scattered Clouds
3:00 PM 39.2 °F 30.8 °F 26.6 °F 61% 30.06 in 15.0 mi West 15.0 mph 25.3 mph N/A   Partly Cloudy
4:00 PM 37.4 °F 30.3 °F 26.6 °F 65% 30.09 in 15.0 mi West 10.4 mph - N/A   Partly Cloudy
5:00 PM 33.8 °F 28.6 °F 26.6 °F 75% 30.12 in 15.0 mi West 5.8 mph - N/A   Partly Cloudy
6:00 PM 33.8 °F 27.0 °F 26.6 °F 75% 30.13 in 15.0 mi West 8.1 mph - N/A   Partly Cloudy
7:00 PM 35.6 °F 26.2 °F 23.0 °F 60% 30.17 in 15.0 mi West 15.0 mph 25.3 mph N/A   Partly Cloudy
8:00 PM 33 °F - 21 °F 49% 30.21 in 15 mi West 12.7 mph - -   Clear
8:00 PM 33.8 °F 24.8 °F 21.2 °F 60% 30.21 in 15.0 mi West 12.7 mph 20.7 mph N/A   Partly Cloudy
9:00 PM 30.2 °F 21.3 °F 19.4 °F 64% 30.24 in 15.0 mi WNW 10.4 mph 21.9 mph N/A   Partly Cloudy
10:00 PM 28.4 °F 21.2 °F 17.6 °F 64% 30.25 in 15.0 mi NW 6.9 mph - N/A   Partly Cloudy
11:00 PM 26.6 °F 18.2 °F 15.8 °F 64% 30.26 in 15.0 mi WNW 8.1 mph - N/A   Partly Cloudy